[[{"header":{"parameterUnit":"m.s-1","parameterCategory":1,"la1":30.2991,"la2":30.254,"lo1":-89.0895,"lo2":-89.0444,"dy":0.0017,"dx":0.0017,"nx":28,"ny":28,"refTime":"2024-09-27T09:00:00:Z","depth":0,"parameterNumber":2,"parameterNumberName":"U-component_of_WINDS"},"data":[0,0,0,0,0,0,0,0,0,0,0,0,0,0,0,0,0,0,0,0,0,0,0,0,0,0,0,0,0,0,0,0,0,0,0,0,0,0,0,0,0,0,0,0,0,0,0,0,0,0,0,0,0,0,0,0,0,0,6.6191,6.6193,0,6.6422,6.6425,6.6427,6.6373,6.6368,6.6364,6.636,6.6598,6.6608,6.6619,0,0,0,0,0,0,0,0,0,0,0,0,0,6.5704,6.5713,6.6191,6.6194,6.6197,6.6421,6.6425,6.6428,6.6373,6.6368,6.6363,6.6358,6.6595,6.6607,6.662,0,0,0,0,0,0,0,0,0,0,0,0,0,6.5923,6.5716,6.619,6.6196,6.6199,6.6421,6.6425,6.6429,6.6375,6.6368,6.6361,6.6355,6.659,6.6606,6.6621,6.6851,0,0,6.6669,6.6676,0,0,0,0,0,0,0,0,6.5911,6.5941,6.6193,6.6196,6.62,6.6362,6.634,6.657,6.6376,6.6308,6.6359,6.6352,6.6525,6.6546,6.6604,6.6863,6.6873,6.6671,6.668,6.6687,6.6691,0,0,0,0,0,0,0,6.5896,6.5931,6.6282,6.6196,6.6201,6.6188,6.6212,6.6384,6.6451,6.6314,6.631,6.6338,6.6526,6.6589,6.6609,6.6876,6.667,6.6684,6.6694,6.67,6.7335,6.7342,0,0,0,0,0,0,6.5877,6.5919,6.6275,6.6289,6.6036,6.6202,6.6229,6.6317,6.6449,6.6463,6.6344,6.6335,6.6565,6.659,6.6617,6.6894,6.6687,6.6702,6.6711,6.7327,6.7336,6.7344,0,0,0,0,0,0,6.5867,6.5909,6.6266,6.6103,6.6147,6.6218,6.6317,6.6325,6.6387,6.6472,6.6483,6.6395,6.6561,6.6595,6.6793,6.6902,6.6709,6.6723,6.7319,6.733,6.734,6.7451,0,0,0,0,0,0,6.5853,6.5906,6.5994,6.6105,6.6156,6.6438,6.6323,6.6334,6.6414,6.6405,6.6523,6.6537,6.6558,6.677,6.6809,6.692,6.6735,6.7309,6.7324,6.7337,6.7438,6.7465,6.7487,0,0,0,0,0,6.5836,6.6017,6.5999,6.6042,6.6268,6.6444,6.6473,6.6494,6.6423,6.6512,6.6566,6.6533,6.6884,6.6791,6.6834,6.6951,6.7302,6.732,6.7336,6.7427,6.7459,6.7487,0,0,0,0,0,0,6.5917,6.6031,6.6013,6.6235,6.633,6.6435,6.6548,6.6528,6.6646,6.6632,6.6653,6.668,6.6882,6.6937,6.6831,6.7181,6.7083,6.7109,6.7137,6.7169,6.7193,6.7176,6.6748,0,0,0,0,0,6.5961,6.6094,6.6187,6.6374,6.6423,6.6477,6.6555,6.6562,6.6662,6.6702,6.6771,6.687,6.7002,6.7089,6.7215,6.7446,6.7471,6.7548,6.7573,6.7592,6.7615,6.774,6.7775,6.7399,6.7399,6.7399,0,0,6.6052,6.6131,6.6214,6.6392,6.6467,6.6605,6.6512,6.6662,6.6764,6.6725,6.6916,6.697,6.7082,6.7297,6.7395,6.7349,6.7724,6.7614,6.7629,6.7641,6.7761,6.7796,6.7828,6.7411,6.7409,6.7407,0,0,6.629,6.6363,6.6526,6.6603,6.6717,6.6752,6.6791,6.6899,6.6933,6.7125,6.7098,6.7221,6.7449,6.7529,6.7599,6.7866,6.784,6.7907,6.8036,6.8158,6.8187,6.8214,6.8308,6.8342,6.7929,6.793,6.793,0,6.6389,6.6595,6.6613,6.6766,6.6844,6.6815,6.698,6.7054,6.7204,6.7259,6.7205,6.7489,6.7562,6.7795,6.786,6.7919,6.7964,6.7893,6.8182,6.8208,6.8233,6.8323,6.8359,6.7937,6.7936,6.7935,6.7935,0,6.6712,6.6856,6.6974,6.7118,6.721,6.7369,6.741,6.7502,6.7501,6.7542,6.7737,6.7824,6.7967,6.8023,6.8025,6.8257,6.8224,6.8176,6.8078,6.8276,6.8361,6.8396,6.7947,6.7945,6.7943,6.7941,0,0,6.7007,6.7158,6.7201,6.7266,6.7389,6.7501,6.7658,6.7797,6.7874,6.7979,6.811,6.8304,6.8259,6.8339,6.835,6.8457,6.8662,6.8395,6.8398,6.8441,6.8922,6.8956,6.8996,6.8645,6.8652,6.8657,6.8912,0,6.7255,6.753,6.755,6.7799,6.7931,6.7905,6.8041,6.8132,6.8174,6.8293,6.834,6.8476,6.8408,6.8456,6.8561,6.8614,6.8758,6.8596,6.8767,6.8773,6.8739,6.9041,6.9079,6.9315,6.8945,6.8951,6.8955,0,6.758,6.7693,6.7955,6.8058,6.8115,6.8237,6.8365,6.848,6.8582,6.8605,6.8694,6.8689,6.885,6.8747,6.8969,6.8859,6.893,6.8967,6.8977,6.8992,6.8875,6.9064,6.9391,6.9426,6.9008,6.9004,6.9,0,6.7768,6.7986,6.817,6.8226,6.8352,6.8438,6.8495,6.859,6.8672,6.8785,6.8838,6.8969,6.904,6.9141,6.9172,6.9094,6.9393,6.9292,6.9416,6.9416,6.948,6.9475,6.9822,6.9528,6.9527,6.9527,6.9526,0,6.8042,6.8203,6.8256,6.8369,6.8548,6.857,6.8747,6.8799,6.8884,6.9007,6.8993,6.9108,6.9142,6.9264,6.9289,6.9468,6.9501,6.9524,6.9529,6.9525,6.9522,6.9571,6.9555,6.9536,6.9534,6.9532,6.953,0,6.8282,6.8324,6.8523,6.8625,6.8654,6.8782,6.887,6.8979,6.9018,6.9174,6.9212,6.9275,6.9418,6.9458,6.963,6.9646,6.9857,6.9847,6.9822,6.9822,6.9943,6.9931,7.0333,7.0386,7.0058,7.0061,7.0064,0,6.8453,6.8576,6.8691,6.8772,6.8832,6.8963,6.9046,6.9072,6.9159,6.9284,6.9378,6.9519,6.9632,6.9862,6.9923,7.0054,7.0046,7.0178,7.0066,7.0058,7.0047,7.0039,7.0051,7.0199,7.0203,7.0206,7.0208,0,6.8753,6.8768,6.8888,6.9015,6.9115,6.9217,6.9315,6.9382,6.9422,6.9521,6.9666,6.9754,6.9928,7.0068,7.02,7.0259,7.0241,7.0243,7.0278,7.0275,7.0255,7.0266,6.9879,7.0233,7.0231,7.0229,7.0227,7.0226,6.8964,6.9071,6.9169,6.9303,6.9379,6.947,6.9577,6.963,6.9751,6.9894,6.9903,7.006,7.0158,7.0334,7.04,7.0523,7.0484,7.0536,7.0549,7.0561,7.057,7.0236,7.0547,7.0547,7.0546,7.0546,7.0545,0,6.9262,6.9323,6.9446,6.9583,6.9688,6.9661,6.9767,6.9857,6.9995,7.0088,7.02,7.0366,7.0501,7.0573,7.0707,7.0792,7.0787,7.0827,7.082,7.0834,7.0598,7.0553,7.0828,7.0828,7.0828,7.0828,7.0828,7.0828,6.943,6.961,6.9635,6.9853,6.9913,7.0066,7.0129,7.0213,7.0287,7.0473,7.0585,7.063,7.0714,7.0854,7.0977,7.0995,7.1044,7.1088,7.1101,7.0879,7.085,7.0823,7.0781,7.1099,7.11,7.1326,7.1329,7.133]},{"header":{"parameterUnit":"m.s-1","parameterCategory":1,"la1":30.2991,"la2":30.254,"lo1":-89.0895,"lo2":-89.0444,"dy":0.0017,"dx":0.0017,"nx":28,"ny":28,"refTime":"2024-09-27T09:00:00:Z","depth":0,"parameterNumber":3,"parameterNumberName":"V-component_of_WINDS"},"data":[0,0,0,0,0,0,0,0,0,0,0,0,0,0,0,0,0,0,0,0,0,0,0,0,0,0,0,0,0,0,0,0,0,0,0,0,0,0,0,0,0,0,0,0,0,0,0,0,0,0,0,0,0,0,0,0,0,0,-1.5271,-1.5272,0,-1.5352,-1.5353,-1.5353,-1.535,-1.5349,-1.5347,-1.5346,-1.5431,-1.5434,-1.5437,0,0,0,0,0,0,0,0,0,0,0,0,0,-1.5116,-1.5118,-1.5271,-1.5272,-1.5273,-1.5351,-1.5353,-1.5354,-1.535,-1.5349,-1.5347,-1.5346,-1.543,-1.5434,-1.5438,0,0,0,0,0,0,0,0,0,0,0,0,0,-1.5188,-1.5119,-1.5271,-1.528,-1.5282,-1.5351,-1.5353,-1.5354,-1.535,-1.5349,-1.5347,-1.5345,-1.5428,-1.5433,-1.5438,-1.5503,0,0,-1.5453,-1.5455,0,0,0,0,0,0,0,0,-1.5184,-1.5194,-1.5278,-1.528,-1.5282,-1.5339,-1.5329,-1.5404,-1.5351,-1.5324,-1.5346,-1.5344,-1.5402,-1.5409,-1.5428,-1.5507,-1.5511,-1.5454,-1.5457,-1.5459,-1.546,0,0,0,0,0,0,0,-1.5179,-1.5191,-1.5303,-1.5279,-1.5282,-1.5281,-1.529,-1.5343,-1.5372,-1.5327,-1.5327,-1.5336,-1.5402,-1.5423,-1.543,-1.5512,-1.5454,-1.5458,-1.5461,-1.5463,-1.565,-1.5652,0,0,0,0,0,0,-1.5172,-1.5186,-1.53,-1.5305,-1.5228,-1.5286,-1.5295,-1.5322,-1.5371,-1.5377,-1.5337,-1.5336,-1.5415,-1.5424,-1.5433,-1.5513,-1.5459,-1.5464,-1.5466,-1.5648,-1.5651,-1.5653,0,0,0,0,0,0,-1.5168,-1.5182,-1.5297,-1.5246,-1.526,-1.529,-1.5321,-1.5325,-1.5345,-1.5379,-1.5385,-1.5353,-1.5414,-1.5426,-1.5486,-1.5516,-1.5466,-1.547,-1.5646,-1.5649,-1.5652,-1.5673,0,0,0,0,0,0,-1.5164,-1.5181,-1.5205,-1.5246,-1.5263,-1.5348,-1.5323,-1.5328,-1.5354,-1.5352,-1.5395,-1.5401,-1.5414,-1.5478,-1.5491,-1.5522,-1.5474,-1.5643,-1.5647,-1.5651,-1.567,-1.5676,-1.5682,0,0,0,0,0,-1.5158,-1.5208,-1.5207,-1.522,-1.5294,-1.535,-1.536,-1.5373,-1.5356,-1.5381,-1.5403,-1.54,-1.551,-1.5485,-1.5499,-1.5531,-1.5642,-1.5646,-1.5651,-1.5667,-1.5675,-1.5682,0,0,0,0,0,0,-1.517,-1.5214,-1.5212,-1.5277,-1.531,-1.5349,-1.5381,-1.5381,-1.542,-1.5417,-1.5432,-1.5442,-1.5503,-1.5523,-1.5494,-1.5597,-1.5574,-1.5581,-1.5582,-1.559,-1.5596,-1.559,-1.5478,0,0,0,0,0,-1.518,-1.5221,-1.5257,-1.5311,-1.5327,-1.5352,-1.5376,-1.5384,-1.5419,-1.5433,-1.5459,-1.5494,-1.5536,-1.5564,-1.5605,-1.5673,-1.5683,-1.5702,-1.5708,-1.5713,-1.572,-1.5758,-1.5767,-1.5668,-1.5668,-1.5667,0,0,-1.5202,-1.5231,-1.5256,-1.5314,-1.534,-1.5383,-1.5363,-1.5409,-1.5441,-1.544,-1.5498,-1.5519,-1.5559,-1.5623,-1.5653,-1.5642,-1.5749,-1.5719,-1.5722,-1.5726,-1.5763,-1.5773,-1.5781,-1.5671,-1.567,-1.567,0,0,-1.5263,-1.5288,-1.5336,-1.5363,-1.5402,-1.5418,-1.543,-1.547,-1.5483,-1.5542,-1.5542,-1.5581,-1.5654,-1.5682,-1.5706,-1.5779,-1.5777,-1.5792,-1.5824,-1.586,-1.5868,-1.5875,-1.5902,-1.5911,-1.5798,-1.5798,-1.5798,0,-1.5284,-1.5348,-1.536,-1.5407,-1.5433,-1.5433,-1.5482,-1.5508,-1.5559,-1.5578,-1.5565,-1.5657,-1.5683,-1.5755,-1.5772,-1.5792,-1.5806,-1.5787,-1.5866,-1.5873,-1.588,-1.5905,-1.5915,-1.5799,-1.5799,-1.5799,-1.5799,0,-1.5373,-1.5417,-1.5451,-1.55,-1.553,-1.5577,-1.5598,-1.5627,-1.5632,-1.565,-1.571,-1.5742,-1.579,-1.5807,-1.5813,-1.588,-1.5872,-1.5863,-1.5839,-1.5891,-1.5915,-1.5925,-1.5802,-1.5801,-1.5801,-1.58,0,0,-1.5444,-1.5499,-1.5512,-1.5534,-1.5578,-1.5613,-1.5661,-1.5707,-1.5732,-1.5768,-1.5809,-1.5871,-1.5863,-1.589,-1.5899,-1.5931,-1.5987,-1.5918,-1.5919,-1.593,-1.6064,-1.6071,-1.6082,-1.5986,-1.5988,-1.5989,-1.6061,0,-1.5509,-1.5593,-1.5606,-1.568,-1.5722,-1.5723,-1.5765,-1.5797,-1.5815,-1.5853,-1.5873,-1.5917,-1.5902,-1.5919,-1.5951,-1.5973,-1.6014,-1.5968,-1.6025,-1.6027,-1.6015,-1.6095,-1.6102,-1.6168,-1.607,-1.6072,-1.6073,0,-1.5597,-1.5635,-1.5713,-1.5752,-1.577,-1.5807,-1.5851,-1.5887,-1.5924,-1.5935,-1.5966,-1.5971,-1.6021,-1.5996,-1.6066,-1.6035,-1.6059,-1.6073,-1.6076,-1.6082,-1.6053,-1.6103,-1.6189,-1.6199,-1.6088,-1.6087,-1.6086,0,-1.5642,-1.5712,-1.5768,-1.5787,-1.5834,-1.586,-1.5881,-1.5916,-1.5943,-1.5982,-1.6,-1.6044,-1.6069,-1.6103,-1.612,-1.61,-1.619,-1.6165,-1.6201,-1.6201,-1.622,-1.6219,-1.6312,-1.6235,-1.6235,-1.6234,-1.6234,0,-1.5714,-1.5762,-1.5788,-1.5823,-1.5877,-1.5891,-1.5945,-1.5965,-1.5996,-1.6036,-1.6039,-1.6076,-1.6097,-1.6137,-1.6151,-1.6207,-1.6218,-1.6229,-1.6232,-1.6229,-1.6228,-1.6245,-1.6241,-1.6237,-1.6237,-1.6236,-1.6236,0,-1.5773,-1.5792,-1.5853,-1.5892,-1.5904,-1.5942,-1.5976,-1.601,-1.6027,-1.6077,-1.609,-1.6118,-1.6165,-1.6186,-1.6244,-1.6254,-1.6319,-1.6318,-1.6306,-1.6307,-1.6342,-1.6338,-1.645,-1.6465,-1.6377,-1.6378,-1.6379,0,-1.5818,-1.5855,-1.5898,-1.5924,-1.5945,-1.5987,-1.6015,-1.6031,-1.606,-1.6105,-1.6134,-1.6181,-1.622,-1.6296,-1.6322,-1.6368,-1.6369,-1.6404,-1.6376,-1.6371,-1.637,-1.6368,-1.6372,-1.641,-1.6411,-1.6411,-1.6412,0,-1.5896,-1.5904,-1.5943,-1.5986,-1.6019,-1.6054,-1.6088,-1.611,-1.6131,-1.6164,-1.6212,-1.6242,-1.6302,-1.6349,-1.6396,-1.6418,-1.642,-1.6421,-1.6432,-1.6429,-1.6421,-1.6426,-1.6321,-1.6418,-1.6418,-1.6417,-1.6417,-1.6417,-1.595,-1.5983,-1.6018,-1.6062,-1.609,-1.6121,-1.6155,-1.6177,-1.6217,-1.6267,-1.6274,-1.6326,-1.6363,-1.6426,-1.645,-1.6491,-1.6483,-1.6498,-1.6502,-1.6506,-1.6508,-1.6414,-1.65,-1.65,-1.65,-1.6499,-1.6499,0,-1.6029,-1.6052,-1.6092,-1.6139,-1.6174,-1.6171,-1.6209,-1.6239,-1.6284,-1.6318,-1.6356,-1.6412,-1.6458,-1.6487,-1.6534,-1.6562,-1.6564,-1.6574,-1.6572,-1.6578,-1.6513,-1.6499,-1.6571,-1.6571,-1.6571,-1.6571,-1.6571,-1.6571,-1.6074,-1.613,-1.6142,-1.6212,-1.6235,-1.6285,-1.6307,-1.6337,-1.6364,-1.6426,-1.6464,-1.6482,-1.6515,-1.6564,-1.6607,-1.6615,-1.6632,-1.6643,-1.665,-1.6589,-1.6582,-1.6575,-1.6562,-1.6646,-1.6646,-1.6711,-1.6712,-1.6712]}]]